Time,TemperatureF,DewpointF,PressureIn,WindDirection,WindDirectionDegrees,WindSpeedMPH,WindSpeedGustMPH,Humidity,HourlyPrecipIn,Conditions,Clouds,dailyrainin,SolarRadiationWatts/m^2,SoftwareType,DateUTC
2013-04-17 00:01:00,45.7,40.0,29.79,West,263,6.0,-999.0,79,-99.99,,,0.00,0,weatherlink.com 1.10,2013-04-16 23:01:00,
2013-04-17 00:16:00,45.9,40.0,29.79,SW,218,7.0,-999.0,79,-99.99,,,0.00,0,weatherlink.com 1.10,2013-04-16 23:16:00,
2013-04-17 00:31:00,46.3,40.0,29.78,SW,230,14.0,-999.0,78,-99.99,,,0.00,0,weatherlink.com 1.10,2013-04-16 23:31:00,
2013-04-17 00:46:00,46.3,40.0,29.78,SW,228,5.0,-999.0,78,-99.99,,,0.00,0,weatherlink.com 1.10,2013-04-16 23:46:00,
2013-04-17 01:01:00,46.2,40.0,29.79,South,186,4.0,-999.0,79,-99.99,,,0.00,0,weatherlink.com 1.10,2013-04-17 00:01:00,
2013-04-17 01:16:00,45.6,40.0,29.79,SSE,165,1.0,-999.0,81,-99.99,,,0.00,0,weatherlink.com 1.10,2013-04-17 00:16:00,
2013-04-17 01:31:00,44.5,40.0,29.79,SSW,207,3.0,-999.0,84,-99.99,,,0.00,0,weatherlink.com 1.10,2013-04-17 00:31:00,
2013-04-17 01:46:00,43.6,40.0,29.78,SW,224,5.0,-999.0,87,-99.99,,,0.00,0,weatherlink.com 1.10,2013-04-17 00:46:00,
2013-04-17 02:01:00,42.9,40.0,29.78,SSW,194,1.0,-999.0,88,-99.99,,,0.00,0,weatherlink.com 1.10,2013-04-17 01:01:00,
2013-04-17 02:47:00,42.8,40.0,29.77,SSW,192,4.0,-999.0,88,-99.99,,,0.00,0,weatherlink.com 1.10,2013-04-17 01:47:00,
2013-04-17 03:01:00,42.9,40.0,29.77,South,186,1.0,-999.0,88,-99.99,,,0.00,0,weatherlink.com 1.10,2013-04-17 02:01:00,
2013-04-17 03:16:00,42.6,39.0,29.77,ESE,116,4.0,-999.0,87,-99.99,,,0.00,0,weatherlink.com 1.10,2013-04-17 02:16:00,
2013-04-17 03:31:00,41.7,38.0,29.77,ESE,116,0.0,-999.0,87,-99.99,,,0.00,0,weatherlink.com 1.10,2013-04-17 02:31:00,
2013-04-17 03:46:00,40.7,38.0,29.77,ESE,116,0.0,-999.0,89,-99.99,,,0.00,0,weatherlink.com 1.10,2013-04-17 02:46:00,
2013-04-17 04:01:00,40.5,38.0,29.76,ESE,116,0.0,-999.0,90,-99.99,,,0.00,0,weatherlink.com 1.10,2013-04-17 03:01:00,
2013-04-17 04:16:00,40.3,38.0,29.75,ESE,116,0.0,-999.0,90,-99.99,,,0.00,0,weatherlink.com 1.10,2013-04-17 03:16:00,
2013-04-17 04:31:00,40.2,38.0,29.75,ESE,116,0.0,-999.0,91,-99.99,,,0.00,0,weatherlink.com 1.10,2013-04-17 03:31:00,
2013-04-17 04:46:00,40.1,38.0,29.74,ESE,116,0.0,-999.0,92,-99.99,,,0.00,0,weatherlink.com 1.10,2013-04-17 03:46:00,
2013-04-17 05:16:00,39.7,38.0,29.72,ESE,116,0.0,-999.0,92,-99.99,,,0.00,0,weatherlink.com 1.10,2013-04-17 04:16:00,
2013-04-17 05:31:00,39.3,38.0,29.72,ESE,116,0.0,-999.0,93,-99.99,,,0.00,0,weatherlink.com 1.10,2013-04-17 04:31:00,
2013-04-17 05:46:00,39.7,38.0,29.71,ESE,108,2.0,-999.0,94,-99.99,,,0.00,0,weatherlink.com 1.10,2013-04-17 04:46:00,
2013-04-17 06:02:00,40.4,39.0,29.71,ESE,108,2.0,-999.0,94,-99.99,,,0.00,0,weatherlink.com 1.10,2013-04-17 05:02:00,
2013-04-17 06:17:00,40.7,39.0,29.70,ENE,77,0.0,-999.0,94,-99.99,,,0.00,0,weatherlink.com 1.10,2013-04-17 05:17:00,
2013-04-17 06:32:00,40.8,39.0,29.69,ENE,77,1.0,-999.0,94,-99.99,,,0.00,0,weatherlink.com 1.10,2013-04-17 05:32:00,
2013-04-17 06:47:00,41.4,40.0,29.69,East,80,0.0,-999.0,93,-99.99,,,0.02,5,weatherlink.com 1.10,2013-04-17 05:47:00,
2013-04-17 07:02:00,42.2,40.0,29.69,ESE,118,2.0,-999.0,93,-99.99,,,0.02,7,weatherlink.com 1.10,2013-04-17 06:02:00,
2013-04-17 07:17:00,42.6,41.0,29.66,ESE,118,4.0,-999.0,92,-99.99,,,0.04,11,weatherlink.com 1.10,2013-04-17 06:17:00,
2013-04-17 07:32:00,42.7,41.0,29.64,ENE,72,0.0,-999.0,93,-99.99,,,0.04,23,weatherlink.com 1.10,2013-04-17 06:32:00,
2013-04-17 07:47:00,42.8,41.0,29.63,ENE,72,0.0,-999.0,93,-99.99,,,0.04,21,weatherlink.com 1.10,2013-04-17 06:47:00,
2013-04-17 08:02:00,43.0,41.0,29.64,East,82,4.0,-999.0,94,-99.99,,,0.06,25,weatherlink.com 1.10,2013-04-17 07:02:00,
2013-04-17 08:17:00,43.4,42.0,29.62,East,84,2.0,-999.0,94,-99.99,,,0.09,28,weatherlink.com 1.10,2013-04-17 07:17:00,
2013-04-17 08:32:00,43.7,42.0,29.59,East,81,3.0,-999.0,94,-99.99,,,0.10,18,weatherlink.com 1.10,2013-04-17 07:32:00,
2013-04-17 08:47:00,44.2,43.0,29.58,East,80,1.0,-999.0,95,-99.99,,,0.13,28,weatherlink.com 1.10,2013-04-17 07:47:00,
2013-04-17 09:02:00,44.6,43.0,29.57,East,91,7.0,-999.0,95,-99.99,,,0.14,49,weatherlink.com 1.10,2013-04-17 08:02:00,
2013-04-17 09:17:00,45.0,44.0,29.56,NE,44,4.0,-999.0,95,-99.99,,,0.16,44,weatherlink.com 1.10,2013-04-17 08:17:00,
2013-04-17 09:32:00,45.1,44.0,29.55,ENE,66,10.0,-999.0,95,-99.99,,,0.19,28,weatherlink.com 1.10,2013-04-17 08:32:00,
2013-04-17 09:47:00,45.0,44.0,29.53,NE,53,6.0,-999.0,95,-99.99,,,0.21,40,weatherlink.com 1.10,2013-04-17 08:47:00,
2013-04-17 10:02:00,45.0,44.0,29.52,ENE,68,5.0,-999.0,95,-99.99,,,0.24,32,weatherlink.com 1.10,2013-04-17 09:02:00,
2013-04-17 10:17:00,45.0,44.0,29.51,NE,55,4.0,-999.0,95,-99.99,,,0.27,42,weatherlink.com 1.10,2013-04-17 09:17:00,
2013-04-17 10:32:00,45.1,44.0,29.50,NE,48,0.0,-999.0,95,-99.99,,,0.30,39,weatherlink.com 1.10,2013-04-17 09:32:00,
2013-04-17 10:47:00,45.2,44.0,29.49,NNE,22,5.0,-999.0,96,-99.99,,,0.32,30,weatherlink.com 1.10,2013-04-17 09:47:00,
2013-04-17 11:02:00,45.5,45.0,29.48,NNE,22,0.0,-999.0,96,-99.99,,,0.34,49,weatherlink.com 1.10,2013-04-17 10:02:00,
2013-04-17 11:17:00,45.8,45.0,29.46,NNE,19,2.0,-999.0,96,-99.99,,,0.37,44,weatherlink.com 1.10,2013-04-17 10:17:00,
2013-04-17 11:32:00,45.9,45.0,29.46,North,351,2.0,-999.0,96,-99.99,,,0.46,53,weatherlink.com 1.10,2013-04-17 10:32:00,
2013-04-17 11:47:00,46.1,45.0,29.45,NNE,20,2.0,-999.0,96,-99.99,,,0.54,32,weatherlink.com 1.10,2013-04-17 10:47:00,
2013-04-17 12:02:00,46.5,46.0,29.43,NNE,31,5.0,-999.0,97,-99.99,,,0.57,21,weatherlink.com 1.10,2013-04-17 11:02:00,
2013-04-17 12:17:00,47.3,47.0,29.42,SSW,209,5.0,-999.0,97,-99.99,,,0.61,49,weatherlink.com 1.10,2013-04-17 11:17:00,
2013-04-17 12:33:00,49.1,48.0,29.41,SE,128,6.0,-999.0,97,-99.99,,,0.63,74,weatherlink.com 1.10,2013-04-17 11:33:00,
2013-04-17 12:48:00,49.5,49.0,29.40,SSE,152,9.0,-999.0,97,-99.99,,,0.65,69,weatherlink.com 1.10,2013-04-17 11:48:00,
2013-04-17 13:03:00,49.6,49.0,29.39,South,190,5.0,-999.0,97,-99.99,,,0.65,74,weatherlink.com 1.10,2013-04-17 12:03:00,
2013-04-17 13:18:00,49.6,49.0,29.39,South,186,12.0,-999.0,97,-99.99,,,0.66,60,weatherlink.com 1.10,2013-04-17 12:18:00,
2013-04-17 13:33:00,49.5,49.0,29.37,South,170,7.0,-999.0,97,-99.99,,,0.67,35,weatherlink.com 1.10,2013-04-17 12:33:00,
2013-04-17 13:48:00,49.5,49.0,29.38,SSW,211,4.0,-999.0,97,-99.99,,,0.71,37,weatherlink.com 1.10,2013-04-17 12:48:00,
2013-04-17 14:03:00,49.6,49.0,29.37,South,181,4.0,-999.0,97,-99.99,,,0.75,33,weatherlink.com 1.10,2013-04-17 13:03:00,
2013-04-17 14:18:00,49.7,49.0,29.35,South,179,6.0,-999.0,97,-99.99,,,0.79,77,weatherlink.com 1.10,2013-04-17 13:18:00,
2013-04-17 14:33:00,49.6,49.0,29.35,South,172,7.0,-999.0,97,-99.99,,,0.80,53,weatherlink.com 1.10,2013-04-17 13:33:00,
2013-04-17 14:48:00,49.6,49.0,29.34,SE,136,5.0,-999.0,97,-99.99,,,0.81,62,weatherlink.com 1.10,2013-04-17 13:48:00,
2013-04-17 15:03:00,49.7,49.0,29.33,SE,143,7.0,-999.0,97,-99.99,,,0.82,69,weatherlink.com 1.10,2013-04-17 14:03:00,
2013-04-17 15:18:00,50.0,49.0,29.33,SSW,194,8.0,-999.0,97,-99.99,,,0.82,93,weatherlink.com 1.10,2013-04-17 14:18:00,
2013-04-17 15:33:00,50.0,49.0,29.32,East,94,2.0,-999.0,97,-99.99,,,0.82,70,weatherlink.com 1.10,2013-04-17 14:33:00,
2013-04-17 15:48:00,50.0,49.0,29.31,SSE,168,4.0,-999.0,96,-99.99,,,0.82,84,weatherlink.com 1.10,2013-04-17 14:48:00,
2013-04-17 16:03:00,50.4,49.0,29.30,ENE,67,3.0,-999.0,96,-99.99,,,0.82,84,weatherlink.com 1.10,2013-04-17 15:03:00,
2013-04-17 16:18:00,50.6,50.0,29.29,SE,144,8.0,-999.0,96,-99.99,,,0.82,125,weatherlink.com 1.10,2013-04-17 15:18:00,
2013-04-17 16:33:00,50.6,50.0,29.28,NE,49,2.0,-999.0,96,-99.99,,,0.82,76,weatherlink.com 1.10,2013-04-17 15:33:00,
2013-04-17 16:48:00,50.6,49.0,29.27,SW,236,10.0,-999.0,95,-99.99,,,0.82,65,weatherlink.com 1.10,2013-04-17 15:48:00,
2013-04-17 17:03:00,50.9,50.0,29.26,SSE,166,6.0,-999.0,95,-99.99,,,0.82,74,weatherlink.com 1.10,2013-04-17 16:03:00,
2013-04-17 17:18:00,51.0,50.0,29.24,ESE,111,4.0,-999.0,95,-99.99,,,0.82,134,weatherlink.com 1.10,2013-04-17 16:18:00,
2013-04-17 17:33:00,51.7,50.0,29.24,ESE,121,14.0,-999.0,93,-99.99,,,0.82,72,weatherlink.com 1.10,2013-04-17 16:33:00,
2013-04-17 17:48:00,51.5,50.0,29.23,SW,217,14.0,-999.0,93,-99.99,,,0.82,74,weatherlink.com 1.10,2013-04-17 16:48:00,
2013-04-17 18:03:00,51.3,49.0,29.22,SSW,200,6.0,-999.0,93,-99.99,,,0.82,39,weatherlink.com 1.10,2013-04-17 17:03:00,
2013-04-17 18:18:00,51.1,49.0,29.21,SSE,147,6.0,-999.0,92,-99.99,,,0.82,26,weatherlink.com 1.10,2013-04-17 17:18:00,
2013-04-17 18:33:00,51.1,49.0,29.20,SSE,164,8.0,-999.0,92,-99.99,,,0.82,21,weatherlink.com 1.10,2013-04-17 17:33:00,
2013-04-17 18:48:00,50.9,48.0,29.19,SSE,161,7.0,-999.0,91,-99.99,,,0.82,19,weatherlink.com 1.10,2013-04-17 17:48:00,
2013-04-17 19:03:00,50.9,48.0,29.17,SSW,210,5.0,-999.0,91,-99.99,,,0.82,19,weatherlink.com 1.10,2013-04-17 18:03:00,
2013-04-17 19:19:00,50.7,48.0,29.16,ESE,123,4.0,-999.0,91,-99.99,,,0.82,7,weatherlink.com 1.10,2013-04-17 18:19:00,
2013-04-17 19:34:00,50.7,48.0,29.15,SW,219,10.0,-999.0,90,-99.99,,,0.82,7,weatherlink.com 1.10,2013-04-17 18:34:00,
2013-04-17 19:49:00,50.7,48.0,29.14,South,169,13.0,-999.0,90,-99.99,,,0.82,0,weatherlink.com 1.10,2013-04-17 18:49:00,
2013-04-17 20:04:00,50.4,48.0,29.13,South,178,14.0,-999.0,90,-99.99,,,0.82,5,weatherlink.com 1.10,2013-04-17 19:04:00,
2013-04-17 20:19:00,50.1,47.0,29.12,South,191,10.0,-999.0,90,-99.99,,,0.82,0,weatherlink.com 1.10,2013-04-17 19:19:00,
2013-04-17 20:34:00,49.9,47.0,29.11,South,175,8.0,-999.0,89,-99.99,,,0.82,0,weatherlink.com 1.10,2013-04-17 19:34:00,
2013-04-17 20:49:00,49.6,47.0,29.09,South,179,15.0,-999.0,90,-99.99,,,0.83,0,weatherlink.com 1.10,2013-04-17 19:49:00,
2013-04-17 21:04:00,49.4,46.0,29.08,South,169,13.0,-999.0,89,-99.99,,,0.83,0,weatherlink.com 1.10,2013-04-17 20:04:00,
2013-04-17 21:19:00,49.3,46.0,29.08,SSE,154,7.0,-999.0,89,-99.99,,,0.83,0,weatherlink.com 1.10,2013-04-17 20:19:00,
2013-04-17 21:34:00,49.1,46.0,29.07,South,191,16.0,-999.0,89,-99.99,,,0.83,0,weatherlink.com 1.10,2013-04-17 20:34:00,
2013-04-17 21:49:00,48.9,46.0,29.07,SSW,192,9.0,-999.0,88,-99.99,,,0.83,0,weatherlink.com 1.10,2013-04-17 20:49:00,
2013-04-17 22:04:00,48.7,46.0,29.07,SSW,197,16.0,-999.0,89,-99.99,,,0.83,0,weatherlink.com 1.10,2013-04-17 21:04:00,
2013-04-17 22:19:00,48.4,45.0,29.07,SSW,202,14.0,-999.0,89,-99.99,,,0.83,0,weatherlink.com 1.10,2013-04-17 21:19:00,
2013-04-17 22:34:00,48.1,45.0,29.05,SSE,147,26.0,-999.0,89,-99.99,,,0.83,0,weatherlink.com 1.10,2013-04-17 21:34:00,
2013-04-17 22:49:00,47.9,45.0,29.05,SSW,194,12.0,-999.0,90,-99.99,,,0.83,0,weatherlink.com 1.10,2013-04-17 21:49:00,
2013-04-17 23:04:00,47.8,45.0,29.05,SSW,203,11.0,-999.0,90,-99.99,,,0.83,0,weatherlink.com 1.10,2013-04-17 22:04:00,
2013-04-17 23:19:00,47.9,45.0,29.05,South,191,8.0,-999.0,90,-99.99,,,0.83,0,weatherlink.com 1.10,2013-04-17 22:19:00,
2013-04-17 23:34:00,47.9,45.0,29.05,South,169,15.0,-999.0,90,-99.99,,,0.83,0,weatherlink.com 1.10,2013-04-17 22:34:00,
2013-04-17 23:49:00,48.0,45.0,29.05,South,189,26.0,-999.0,90,-99.99,,,0.83,0,weatherlink.com 1.10,2013-04-17 22:49:00,